| time (UTC) | temp C | wind direction | speed KPH | gust KPH | rain 1hr cm | rain 24hr cm | rain mn cm | humidity % | barometer mb |
| 20260506140022 | 17 | 155 | 0.0 | 0.0 | 0.00 | 0.00 | 0.00 | 39 | 953.6 |
| 20260506134514 | 17 | 143 | 0.0 | 0.0 | 0.00 | 0.00 | 0.00 | 40 | 953.4 |
| 20260506133013 | 16 | 122 | 0.0 | 1.6 | 0.00 | 0.00 | 0.00 | 41 | 953.3 |
| 20260506131517 | 16 | 101 | 0.0 | 1.6 | 0.00 | 0.00 | 0.00 | 42 | 953.2 |
| 20260506130010 | 16 | 116 | 0.0 | 0.0 | 0.00 | 0.00 | 0.00 | 42 | 952.9 |
| 20260506124507 | 16 | 101 | 0.0 | 0.0 | 0.00 | 0.00 | 0.00 | 42 | 952.8 |
| 20260506123008 | 16 | 101 | 0.0 | 0.0 | 0.00 | 0.00 | 0.00 | 42 | 952.6 |
| 20260506121505 | 16 | 112 | 0.0 | 1.6 | 0.00 | 0.00 | 0.00 | 42 | 952.5 |
| 20260506120002 | 16 | 116 | 0.0 | 1.6 | 0.00 | 0.00 | 0.00 | 42 | 952.4 |
| 20260506114501 | 16 | 145 | 0.0 | 1.6 | 0.00 | 0.00 | 0.00 | 42 | 952.4 |
| 20260506113100 | 16 | 112 | 0.0 | 0.0 | 0.00 | 0.00 | 0.00 | 42 | 952.3 |
| 20260506111600 | 16 | 243 | 0.0 | 0.0 | 0.00 | 0.00 | 0.00 | 42 | 952.2 |
| 20260506104551 | 16 | 116 | 0.0 | 0.0 | 0.00 | 0.00 | 0.00 | 41 | 951.8 |
| 20260506103048 | 16 | 134 | 0.0 | 0.0 | 0.00 | 0.00 | 0.00 | 41 | 951.7 |
| 20260506101554 | 17 | 159 | 0.0 | 0.0 | 0.00 | 0.00 | 0.00 | 40 | 951.6 |
| 20260506100044 | 17 | 243 | 0.0 | 0.0 | 0.00 | 0.00 | 0.00 | 40 | 951.6 |
| 20260506094542 | 17 | 277 | 0.0 | 1.6 | 0.00 | 0.00 | 0.00 | 39 | 951.4 |
| 20260506093042 | 17 | 240 | 0.0 | 0.0 | 0.00 | 0.00 | 0.00 | 37 | 951.4 |
| 20260506091538 | 18 | 198 | 0.0 | 0.0 | 0.00 | 0.00 | 0.00 | 37 | 951.3 |
| 20260506090037 | 18 | 139 | 0.0 | 1.6 | 0.00 | 0.00 | 0.00 | 37 | 951.3 |
| 20260506084543 | 18 | 82 | 0.0 | 0.0 | 0.00 | 0.00 | 0.00 | 37 | 951.3 |
| 20260506083035 | 18 | 82 | 0.0 | 0.0 | 0.00 | 0.00 | 0.00 | 36 | 951.3 |
| 20260506081540 | 18 | 84 | 0.0 | 0.0 | 0.00 | 0.00 | 0.00 | 36 | 951.3 |
| 20260506073025 | 19 | 262 | 0.0 | 0.0 | 0.00 | 0.00 | 0.00 | 33 | 951.1 |
| 20260506071522 | 19 | 250 | 0.0 | 0.0 | 0.00 | 0.00 | 0.00 | 32 | 950.9 |
| 20260506061515 | 20 | 117 | 0.0 | 6.4 | 0.00 | 0.00 | 0.00 | 29 | 950.4 |
| 20260506044513 | 22 | 147 | 8.0 | 16.1 | 0.00 | 0.00 | 0.00 | 27 | 949.5 |
| 20260506043004 | 22 | 118 | 8.0 | 16.1 | 0.00 | 0.00 | 0.00 | 26 | 949.4 |
| 20260506041504 | 22 | 145 | 11.3 | 17.7 | 0.00 | 0.00 | 0.00 | 26 | 949.2 |
| 20260506040003 | 22 | 155 | 6.4 | 12.9 | 0.00 | 0.00 | 0.00 | 25 | 949.0 |
| 20260506034504 | 22 | 134 | 4.8 | 12.9 | 0.00 | 0.00 | 0.00 | 25 | 948.8 |
| 20260506033002 | 22 | 141 | 4.8 | 11.3 | 0.00 | 0.00 | 0.00 | 25 | 948.6 |
| 20260506031603 | 22 | 146 | 6.4 | 14.5 | 0.00 | 0.00 | 0.00 | 25 | 948.5 |
| 20260506030059 | 22 | 152 | 1.6 | 12.9 | 0.00 | 0.00 | 0.00 | 25 | 948.3 |
| 20260506024608 | 23 | 169 | 4.8 | 14.5 | 0.00 | 0.00 | 0.00 | 25 | 948.0 |
| 20260506023111 | 23 | 168 | 9.7 | 14.5 | 0.00 | 0.00 | 0.00 | 24 | 947.9 |
| 20260506021557 | 23 | 198 | 3.2 | 14.5 | 0.00 | 0.00 | 0.00 | 24 | 947.6 |
| 20260506020058 | 23 | 210 | 6.4 | 12.9 | 0.00 | 0.00 | 0.00 | 24 | 947.5 |
| 20260506014557 | 24 | 186 | 6.4 | 12.9 | 0.00 | 0.00 | 0.00 | 23 | 947.3 |
| 20260506013103 | 24 | 197 | 6.4 | 16.1 | 0.00 | 0.00 | 0.00 | 23 | 947.2 |
| 20260506011604 | 25 | 12.9 | 29.0 | 0.00 | 0.00 | 0.00 | 23 | 947.2 | |
| 20260506010055 | 24 | 6.4 | 19.3 | 0.00 | 0.00 | 0.00 | 23 | 947.1 | |
| 20260506004558 | 25 | 219 | 8.0 | 22.5 | 0.00 | 0.00 | 0.00 | 22 | 947.0 |
| 20260506003154 | 25 | 141 | 9.7 | 20.9 | 0.00 | 0.00 | 0.00 | 22 | 946.9 |
| 20260506001556 | 25 | 234 | 9.7 | 20.9 | 0.00 | 0.00 | 0.00 | 22 | 946.9 |
| 20260506000057 | 25 | 115 | 6.4 | 14.5 | 0.00 | 0.00 | 0.00 | 22 | 946.9 |
| 20260505234550 | 25 | 116 | 12.9 | 20.9 | 0.00 | 0.00 | 0.00 | 22 | 947.0 |
| 20260505233053 | 25 | 240 | 4.8 | 19.3 | 0.00 | 0.00 | 0.00 | 22 | 947.0 |
| 20260505231548 | 25 | 245 | 11.3 | 22.5 | 0.00 | 0.00 | 0.00 | 23 | 947.0 |
| 20260505230111 | 24 | 216 | 14.5 | 20.9 | 0.00 | 0.00 | 0.00 | 23 | 947.1 |
| 20260505224545 | 24 | 234 | 6.4 | 24.1 | 0.00 | 0.00 | 0.00 | 23 | 947.2 |
| 20260505223045 | 24 | 204 | 9.7 | 17.7 | 0.00 | 0.00 | 0.00 | 24 | 947.4 |
| 20260505221545 | 23 | 210 | 17.7 | 24.1 | 0.00 | 0.00 | 0.00 | 25 | 947.4 |
| 20260505220050 | 23 | 226 | 16.1 | 30.6 | 0.00 | 0.00 | 0.00 | 25 | 947.7 |
| 20260505214538 | 23 | 283 | 4.8 | 16.1 | 0.00 | 0.00 | 0.00 | 25 | 947.9 |
| 20260505213036 | 23 | 150 | 12.9 | 20.9 | 0.00 | 0.00 | 0.00 | 25 | 948.1 |
| 20260505211536 | 22 | 130 | 1.6 | 11.3 | 0.00 | 0.00 | 0.00 | 26 | 948.2 |
| 20260505210037 | 23 | 233 | 6.4 | 16.1 | 0.00 | 0.00 | 0.00 | 26 | 948.4 |
| 20260505204536 | 23 | 212 | 9.7 | 17.7 | 0.00 | 0.00 | 0.00 | 25 | 948.5 |
| 20260505203034 | 22 | 114 | 1.6 | 12.9 | 0.00 | 0.00 | 0.00 | 27 | 948.5 |
| 20260505201533 | 22 | 212 | 12.9 | 30.6 | 0.00 | 0.00 | 0.00 | 28 | 948.6 |
| 20260505200039 | 22 | 252 | 12.9 | 22.5 | 0.00 | 0.00 | 0.00 | 27 | 948.8 |
| 20260505194531 | 23 | 293 | 6.4 | 27.4 | 0.00 | 0.00 | 0.00 | 28 | 948.8 |
| 20260505193129 | 23 | 219 | 12.9 | 25.7 | 0.00 | 0.00 | 0.00 | 28 | 948.8 |
| 20260505191530 | 22 | 188 | 8.0 | 30.6 | 0.00 | 0.00 | 0.00 | 29 | 949.0 |
| 20260505190025 | 22 | 11.3 | 20.9 | 0.00 | 0.00 | 0.00 | 29 | 949.2 | |
| 20260505184524 | 22 | 14.5 | 27.4 | 0.00 | 0.00 | 0.00 | 31 | 949.3 | |
| 20260505183025 | 21 | 4.8 | 22.5 | 0.00 | 0.00 | 0.00 | 32 | 949.3 | |
| 20260505181523 | 21 | 6.4 | 24.1 | 0.00 | 0.00 | 0.00 | 33 | 949.4 | |
| 20260505180019 | 21 | 264 | 9.7 | 19.3 | 0.00 | 0.00 | 0.00 | 32 | 949.4 |
| 20260505174518 | 21 | 6.4 | 19.3 | 0.00 | 0.00 | 0.00 | 33 | 949.4 | |
| 20260505173015 | 21 | 215 | 4.8 | 19.3 | 0.00 | 0.00 | 0.00 | 34 | 949.4 |
| 20260505171513 | 20 | 249 | 3.2 | 17.7 | 0.00 | 0.00 | 0.00 | 35 | 949.4 |
| 20260505170012 | 20 | 248 | 3.2 | 16.1 | 0.00 | 0.00 | 0.00 | 35 | 949.3 |
| 20260505164512 | 20 | 11.3 | 19.3 | 0.00 | 0.00 | 0.00 | 36 | 949.3 | |
| 20260505163011 | 20 | 4.8 | 24.1 | 0.00 | 0.00 | 0.00 | 37 | 949.2 | |
| 20260505161528 | 19 | 200 | 1.6 | 19.3 | 0.00 | 0.00 | 0.00 | 39 | 949.3 |
| 20260505153013 | 18 | 254 | 1.6 | 11.3 | 0.00 | 0.00 | 0.00 | 44 | 949.2 |
| 20260505151507 | 17 | 227 | 0.0 | 4.8 | 0.00 | 0.00 | 0.00 | 44 | 949.3 |
| 20260505140106 | 16 | 307 | 0.0 | 0.0 | 0.00 | 0.00 | 0.00 | 48 | 949.0 |